Regional Weather Roundup
Issued by NWS

Home | Current Version | Previous Version | Text Only | Print | Product List | Glossary On
Versions: 1 2 3 4 5 6 7 8 9 10 11 12 13 14 15 16 17 18 19 20 21 22 23 24 25 26 27 28 29 30 31 32 33 34 35 36 37 38 39 40 41 42 43 44 45 46 47 48 49 50
000
ASUS43 KDTX 270810
RWRMI
MICHIGAN HOURLY REGIONAL WEATHER ROUNDUP
NATIONAL WEATHER SERVICE DETROIT/PONTIAC MI
400 AM EDT FRI MAR 27 2015

NOTE: "FAIR" INDICATES FEW OR NO CLOUDS BELOW 12,000 FEET WITH NO
SIGNIFICANT WEATHER AND/OR OBSTRUCTION TO VISIBILITY.

MIZ047>049-052>055-059>063-066>070-074>076-081>083-270900-
SOUTHEAST LOWER MICHIGAN

CITY           SKY/WX    TMP DP  RH WIND       PRES   REMARKS
ADRIAN         CLOUDY    30  19  63 N9        29.97R WCI  22
ALMA           CLOUDY    21  10  63 N14G24    30.03S WCI   8
ANN ARBOR      CLOUDY    29  19  66 NW13      29.96R WCI  19
BAD AXE        LGT SNOW  22  18  85 NW13G21   29.95S WCI   9
CARO           FLURRIES  22  14  72 NW10G22   29.97S WCI  11
DETROIT CITY   CLOUDY    31  17  56 NW8       29.95R WCI  23
DETROIT        CLOUDY    31  19  61 NW10      29.96R WCI  22
FLINT          CLOUDY    24  12  60 NW15      29.99R WCI  11
GROSSE ILE     CLOUDY    30  19  64 NW13      29.94S WCI  20
HILLSDALE      CLOUDY    28  21  74 N12G17    29.95R WCI  18
HOWELL         CLOUDY    22  14  71 NW10G18   29.98R WCI  11

CITY           SKY/WX    TMP DP  RH WIND       PRES   REMARKS
JACKSON        CLOUDY    25  15  66 NW17      29.97R WCI  12
LAMBERTVILLE   CLOUDY    32  21  64 NW8       29.97R WCI  25
LANSING        CLOUDY    22  12  65 NW14      30.01R WCI   9
LAPEER         CLOUDY    21  14  73 NW10      29.96S WCI  10
MASON          CLOUDY    23  14  68 N12       29.98S WCI  12
MONROE         CLOUDY    30  19  64 W9        29.95R WCI  22
MT. CLEMENS    CLOUDY    27  19  70 N16       29.93R WCI  15
PONTIAC        CLOUDY    24  14  65 NW17      29.94R WCI  11
PORT HOPE        N/A     24  18  77 NW17G25   29.92F WCI  11
PORT HURON     MOCLDY    25  18  74 NW12      29.95R WCI  14
TRI CITIES     CLOUDY    22  11  62 NW16G24   30.01S WCI   8
TROY           CLOUDY    28  17  61 NW14G20   29.97R WCI  17
SAGINAW HB     CLOUDY    23  14  68 NW18      30.00S WCI   9
$$
MIZ043>046-050>051-056>058-064>065-071>073-077>080-270900-
SOUTHWEST LOWER MICHIGAN

CITY           SKY/WX    TMP DP  RH WIND       PRES   REMARKS
BATTLE CREEK   CLOUDY    26  15  63 N10       30.00R WCI  16
BENTON HARBOR  CLOUDY    25  15  66 N13G18    30.05R WCI  14
BIG RAPIDS     CLOUDY    20  10  64 N7        30.02S WCI  11
COLDWATER      CLOUDY    28  19  68 NW14      29.98R WCI  17
FREMONT        FLURRIES  21  13  72 N15       30.04F WCI   7
HOLLAND        PTCLDY    23  12  62 N7        30.05S WCI  15
GRAND RAPIDS   PTCLDY    21  10  62 N12       30.03F WCI   9
IONIA          FLURRIES  23  15  70 N8        30.02R WCI  14
KALAMAZOO      CLOUDY    25  12  58 N17G24    30.02R WCI  12
LUDINGTON      CLOUDY    23  10  59 N10G18    30.08F WCI  12
MARSHALL       CLOUDY    24  15  67 NW7       29.99R WCI  16
MOUNT PLEASANT CLOUDY    20  10  63 NW12G18   30.02S WCI   8
MUSKEGON       CLEAR     23  13  65 N13G18    30.07S WCI  11
SOUTH HAVEN    CLOUDY    27  15  62 N13       30.05R WCI  16
$$
MIZ016>042-270900-
NORTHERN LOWER MICHIGAN

CITY           SKY/WX    TMP DP  RH WIND       PRES   REMARKS
ALPENA         FLURRIES  19  12  74 N14       30.00R WCI   6
BEAVER ISLAND  CLEAR     13   5  69 N7        30.10S WCI   3
BELLAIRE       CLOUDY    17   8  65 NW6       30.08S WCI   9
CADILLAC       CLOUDY    17   8  65 NW12G18   29.99S WCI   5
CHARLEVOIX     CLOUDY    15   9  74 N10G20    30.11S WCI   3
FRANKFORT      CLOUDY    23   3  42 N14G21    30.09S WCI  11
GAYLORD        LGT SNOW  14  11  87 VRB5      29.98S FOG     WCI   6
GRAYLING       FLURRIES  16   8  72 NW14      30.00S WCI   1
HARBOR SPRINGS PTCLDY    15   6  68 N6G16     30.06S WCI   6
HOUGHTON LAKE  FLURRIES  17  10  74 NW9       29.99S WCI   6
MANISTEE       MOCLDY    21  10  63 N9        30.08F WCI  11
OSCODA         LGT SNOW  22  19  87 NW9       29.96R WCI  12
PELLSTON       CLEAR     13   4  67 N10       30.07R WCI   0
ROGERS CITY    CLOUDY    17  11  75 N15G23    30.03R WCI   3
TRAVERSE CITY  CLOUDY    19  11  70 N12G22    30.07S WCI   7
$$
MIZ007>008-015-270900-
EASTERN UPPER MICHIGAN

CITY           SKY/WX    TMP DP  RH WIND       PRES   REMARKS
KINROSS        CLEAR      7   3  85 NW7       30.06S WCI  -5
MACKINAC ISLAN CLEAR     14   5  67 N16G23    30.06R WCI  -2
NEWBERRY       CLEAR      7   3  83 NW6       30.09R WCI  -3
S. S. MARIE    CLEAR     11   0  61 N8        30.06F WCI  -1
MUNISING         N/A     16   8  71 NE13      30.14R WCI   2
$$
MIZ004>006-011>014-085-270900-
CENTRAL UPPER MICHIGAN

CITY           SKY/WX    TMP DP  RH WIND       PRES   REMARKS
MANISTIQUE     PTCLDY    10   5  79 N5        30.11S WCI   2
ESCANABA       CLOUDY    14   9  79 NW3       30.14R
MENOMINEE      CLEAR     16   3  57 NW6       30.14S WCI   7
SAWYER-GWINN   LGT SNOW  16   9  74 NE14      30.10R WCI   1
$$
MIZ001>003-009>011-084-270900-
WESTERN UPPER MICHIGAN

CITY           SKY/WX    TMP DP  RH WIND       PRES   REMARKS
IRON MOUNTAIN  CLEAR     10   3  73 N6        30.11S WCI   0
HOUGHTON       CLOUDY    14   5  67 NE9       30.16R WCI   2
COPPER HARBOR    N/A      9   3  77 E7        30.21R WCI  -2
IRONWOOD       CLOUDY    19   7  58 N7        30.16R WCI  10
$$

ABBREVIATIONS USED IN REMARKS
   TC - TEMPERATURE IN CELSIUS
  WCI - WIND CHILL INDEX
   HX - HEAT INDEX
  VSB - VISIBILITY



USA.gov is the U.S. government's official web portal to all federal, state and local government web resources and services.